[[{"header":{"parameterUnit":"m.s-1","parameterCategory":1,"la1":30.2991,"la2":30.254,"lo1":-89.0895,"lo2":-89.0444,"dy":0.0017,"dx":0.0017,"nx":28,"ny":28,"refTime":"2025-04-24T09:00:00:Z","depth":0,"parameterNumber":2,"parameterNumberName":"U-component_of_WINDS"},"data":[0,0,0,0,0,0,0,0,0,0,0,0,0,0,0,0,0,0,0,0,0,0,0,0,0,0,0,0,0,0,0,0,0,0,0,0,0,0,0,0,0,0,0,0,0,0,0,0,0,0,0,0,0,0,0,0,0,0,-3.825,-3.8251,0,-3.8321,-3.8322,-3.8323,-3.8277,-3.8275,-3.8273,-3.8271,-3.8344,-3.8348,-3.8351,0,0,0,0,0,0,0,0,0,0,0,0,0,-3.8074,-3.8078,-3.825,-3.8251,-3.8252,-3.8321,-3.8322,-3.8323,-3.8278,-3.8275,-3.8273,-3.827,-3.8342,-3.8347,-3.8352,0,0,0,0,0,0,0,0,0,0,0,0,0,-3.8149,-3.8079,-3.825,-3.8238,-3.8237,-3.8321,-3.8322,-3.8324,-3.8278,-3.8275,-3.8272,-3.8269,-3.8341,-3.8347,-3.8352,-3.8453,0,0,-3.837,-3.8373,0,0,0,0,0,0,0,0,-3.8145,-3.8155,-3.8238,-3.8239,-3.8238,-3.8287,-3.8287,-3.8367,-3.8279,-3.8263,-3.8271,-3.8267,-3.8328,-3.8334,-3.8355,-3.8456,-3.8459,-3.8371,-3.8374,-3.8377,-3.8379,0,0,0,0,0,0,0,-3.814,-3.8152,-3.8278,-3.824,-3.824,-3.8228,-3.8235,-3.8302,-3.8312,-3.8264,-3.8261,-3.827,-3.8327,-3.8349,-3.8356,-3.846,-3.8371,-3.8376,-3.838,-3.8382,-3.8647,-3.865,0,0,0,0,0,0,-3.8135,-3.8148,-3.8276,-3.828,-3.8183,-3.8234,-3.8242,-3.8275,-3.8311,-3.8314,-3.8272,-3.8267,-3.8341,-3.8349,-3.8358,-3.8477,-3.8377,-3.8382,-3.8386,-3.8643,-3.8648,-3.8651,0,0,0,0,0,0,-3.8132,-3.8147,-3.8273,-3.8213,-3.8229,-3.8241,-3.8278,-3.8278,-3.83,-3.8318,-3.8319,-3.8293,-3.8338,-3.835,-3.8429,-3.8479,-3.8385,-3.839,-3.8639,-3.8645,-3.8649,-3.8716,0,0,0,0,0,0,-3.8127,-3.8146,-3.8184,-3.8215,-3.8232,-3.8343,-3.8281,-3.8282,-3.831,-3.8304,-3.8338,-3.834,-3.8337,-3.8421,-3.8435,-3.8485,-3.8395,-3.8635,-3.8642,-3.8648,-3.871,-3.8723,-3.8735,0,0,0,0,0,-3.8121,-3.82,-3.8186,-3.8202,-3.828,-3.8346,-3.8356,-3.8351,-3.8314,-3.8353,-3.8364,-3.8339,-3.8472,-3.8429,-3.8445,-3.8498,-3.8632,-3.864,-3.8647,-3.8704,-3.872,-3.8734,0,0,0,0,0,0,-3.8175,-3.8204,-3.8189,-3.8281,-3.8311,-3.8338,-3.8386,-3.8368,-3.841,-3.8402,-3.8394,-3.8402,-3.8485,-3.85,-3.8452,-3.8597,-3.8546,-3.8557,-3.8584,-3.8599,-3.8612,-3.8606,-3.84,0,0,0,0,0,-3.8198,-3.8249,-3.8272,-3.8351,-3.8367,-3.8374,-3.8403,-3.8396,-3.8427,-3.844,-3.8457,-3.8489,-3.8537,-3.8569,-3.8615,-3.8712,-3.8718,-3.8756,-3.8769,-3.8779,-3.8789,-3.884,-3.8857,-3.8677,-3.8677,-3.8677,0,0,-3.8245,-3.8267,-3.83,-3.8362,-3.8385,-3.8438,-3.8385,-3.8444,-3.8483,-3.8449,-3.8524,-3.8539,-3.8573,-3.8661,-3.8701,-3.8676,-3.884,-3.8789,-3.8797,-3.8801,-3.885,-3.8867,-3.8882,-3.8683,-3.8682,-3.8681,0,0,-3.8358,-3.8381,-3.8448,-3.8472,-3.8508,-3.8513,-3.8529,-3.8559,-3.8567,-3.8643,-3.8618,-3.8665,-3.8749,-3.8775,-3.8799,-3.8923,-3.8901,-3.8938,-3.9003,-3.9053,-3.9067,-3.908,-3.9123,-3.9139,-3.8948,-3.8948,-3.8948,0,-3.8412,-3.8491,-3.8485,-3.8546,-3.8573,-3.8546,-3.8614,-3.8638,-3.8687,-3.8706,-3.8678,-3.8783,-3.8804,-3.8898,-3.8928,-3.8949,-3.8967,-3.8933,-3.9066,-3.9078,-3.909,-3.9131,-3.9147,-3.8952,-3.8952,-3.8951,-3.8951,0,-3.8556,-3.8611,-3.8661,-3.8709,-3.8743,-3.8807,-3.8811,-3.8846,-3.8837,-3.8844,-3.8922,-3.8947,-3.8997,-3.9019,-3.9011,-3.9112,-3.9095,-3.9067,-3.9015,-3.9111,-3.915,-3.9165,-3.8958,-3.8957,-3.8955,-3.8954,0,0,-3.8703,-3.8747,-3.8766,-3.8787,-3.8825,-3.8867,-3.8931,-3.898,-3.901,-3.9045,-3.9097,-3.917,-3.9144,-3.9171,-3.9166,-3.921,-3.9306,-3.9176,-3.9177,-3.9198,-3.9417,-3.9437,-3.9455,-3.9292,-3.9295,-3.9298,-3.9414,0,-3.8817,-3.8927,-3.8923,-3.9026,-3.9076,-3.9052,-3.9106,-3.9136,-3.9145,-3.9189,-3.92,-3.9251,-3.9213,-3.9229,-3.9273,-3.9285,-3.9349,-3.9277,-3.934,-3.9342,-3.933,-3.9476,-3.9497,-3.9605,-3.9429,-3.9432,-3.9433,0,-3.8964,-3.9004,-3.9111,-3.9142,-3.9163,-3.9212,-3.9257,-3.93,-3.9333,-3.9337,-3.9368,-3.9355,-3.9419,-3.9368,-3.9456,-3.9406,-3.9432,-3.9442,-3.9447,-3.9451,-3.9392,-3.9482,-3.964,-3.9655,-3.9457,-3.9455,-3.9454,0,-3.9059,-3.914,-3.9215,-3.9234,-3.9271,-3.9307,-3.9324,-3.9353,-3.9383,-3.9423,-3.9442,-3.9489,-3.9514,-3.9551,-3.9551,-3.9514,-3.964,-3.9588,-3.9644,-3.9644,-3.967,-3.9668,-3.9832,-3.969,-3.9689,-3.9689,-3.9689,0,-3.9186,-3.9252,-3.9258,-3.9303,-3.9377,-3.9373,-3.9446,-3.946,-3.9487,-3.9535,-3.9517,-3.9562,-3.9561,-3.9607,-3.9608,-3.968,-3.9692,-3.9696,-3.9695,-3.9697,-3.9696,-3.9712,-3.9704,-3.9693,-3.9692,-3.9692,-3.9691,0,-3.9304,-3.931,-3.9389,-3.9419,-3.9428,-3.9481,-3.9506,-3.9549,-3.9557,-3.9618,-3.9632,-3.9645,-3.9698,-3.9703,-3.9765,-3.9766,-3.9853,-3.9844,-3.9841,-3.9839,-3.9894,-3.9888,-4.0073,-4.0097,-3.994,-3.9942,-3.9943,0,-3.9383,-3.9433,-3.9468,-3.9499,-3.9518,-3.9568,-3.9599,-3.9597,-3.963,-3.9671,-3.971,-3.9762,-3.9802,-3.9889,-3.9904,-3.9951,-3.9943,-4.0005,-3.995,-3.995,-3.9942,-3.9939,-3.9943,-4.0015,-4.0016,-4.0018,-4.0019,0,-3.9523,-3.9524,-3.9568,-3.9615,-3.9651,-3.9688,-3.9721,-3.9748,-3.9751,-3.9788,-3.9842,-3.9875,-3.9938,-3.9989,-4.0036,-4.0054,-4.0037,-4.0036,-4.0051,-4.0052,-4.0048,-4.005,-3.9868,-4.0032,-4.003,-4.0029,-4.0029,-4.0028,-3.9623,-3.9666,-3.9698,-3.9748,-3.9773,-3.9806,-3.9848,-3.9861,-3.9907,-3.9958,-3.9955,-4.0015,-4.0047,-4.0108,-4.0129,-4.0176,-4.0155,-4.0177,-4.0183,-4.0188,-4.0193,-4.0042,-4.0185,-4.0184,-4.0184,-4.0184,-4.0184,0,-3.976,-3.978,-3.9826,-3.9874,-3.9914,-3.9895,-3.9932,-3.9966,-4.0019,-4.005,-4.0091,-4.0154,-4.0204,-4.0223,-4.0272,-4.0306,-4.0299,-4.0319,-4.0315,-4.0319,-4.0209,-4.019,-4.0323,-4.0323,-4.0323,-4.0323,-4.0323,-4.0323,-3.9836,-3.9909,-3.9914,-3.9998,-4.0017,-4.0076,-4.0098,-4.0128,-4.0152,-4.0223,-4.0264,-4.0277,-4.0303,-4.0354,-4.0399,-4.0403,-4.0422,-4.0444,-4.0445,-4.0341,-4.0327,-4.0314,-4.0296,-4.0448,-4.0449,-4.0551,-4.0552,-4.0552]},{"header":{"parameterUnit":"m.s-1","parameterCategory":1,"la1":30.2991,"la2":30.254,"lo1":-89.0895,"lo2":-89.0444,"dy":0.0017,"dx":0.0017,"nx":28,"ny":28,"refTime":"2025-04-24T09:00:00:Z","depth":0,"parameterNumber":3,"parameterNumberName":"V-component_of_WINDS"},"data":[0,0,0,0,0,0,0,0,0,0,0,0,0,0,0,0,0,0,0,0,0,0,0,0,0,0,0,0,0,0,0,0,0,0,0,0,0,0,0,0,0,0,0,0,0,0,0,0,0,0,0,0,0,0,0,0,0,0,2.882,2.8821,0,2.886,2.886,2.8861,2.8846,2.8845,2.8844,2.8843,2.8881,2.8882,2.8884,0,0,0,0,0,0,0,0,0,0,0,0,0,2.8729,2.8731,2.882,2.8821,2.8821,2.886,2.886,2.8861,2.8846,2.8845,2.8844,2.8843,2.888,2.8882,2.8884,0,0,0,0,0,0,0,0,0,0,0,0,0,2.8769,2.8732,2.882,2.8819,2.8819,2.886,2.886,2.8861,2.8846,2.8845,2.8844,2.8842,2.8879,2.8882,2.8885,2.8928,0,0,2.8893,2.8894,0,0,0,0,0,0,0,0,2.8767,2.8772,2.8818,2.8819,2.8819,2.8847,2.8842,2.8883,2.8847,2.8836,2.8843,2.8842,2.887,2.8874,2.8884,2.893,2.8931,2.8893,2.8895,2.8896,2.8897,0,0,0,0,0,0,0,2.8764,2.877,2.8836,2.8819,2.882,2.8815,2.8819,2.885,2.886,2.8837,2.8836,2.8841,2.887,2.8881,2.8885,2.8932,2.8893,2.8896,2.8897,2.8898,2.9016,2.9017,0,0,0,0,0,0,2.8761,2.8768,2.8835,2.8837,2.8789,2.8818,2.8822,2.8839,2.886,2.8861,2.8842,2.884,2.8877,2.8881,2.8886,2.8938,2.8896,2.8899,2.89,2.9014,2.9016,2.9018,0,0,0,0,0,0,2.8759,2.8767,2.8833,2.8802,2.881,2.8821,2.884,2.8841,2.8852,2.8864,2.8865,2.8852,2.8876,2.8882,2.8918,2.8939,2.89,2.8902,2.9012,2.9015,2.9017,2.9043,0,0,0,0,0,0,2.8757,2.8767,2.8784,2.8803,2.8812,2.8865,2.8841,2.8842,2.8857,2.8855,2.8873,2.8875,2.8876,2.8914,2.8921,2.8942,2.8904,2.9011,2.9013,2.9016,2.9041,2.9046,2.9051,0,0,0,0,0,2.8754,2.8789,2.8785,2.8793,2.8834,2.8867,2.8872,2.8873,2.8859,2.8876,2.8883,2.8874,2.8936,2.8918,2.8925,2.8948,2.9009,2.9013,2.9016,2.9038,2.9045,2.9051,0,0,0,0,0,0,2.8772,2.8792,2.8787,2.883,2.8847,2.8864,2.8886,2.888,2.8901,2.8898,2.8898,2.8902,2.8939,2.8947,2.8926,2.8991,2.897,2.8975,2.8985,2.8991,2.8996,2.8994,2.8907,0,0,0,0,0,2.8781,2.8807,2.8822,2.8859,2.8868,2.8875,2.8889,2.8889,2.8906,2.8913,2.8923,2.8939,2.8962,2.8977,2.8999,2.9042,2.9045,2.9061,2.9066,2.907,2.9075,2.9098,2.9105,2.9029,2.9028,2.9028,0,0,2.88,2.8814,2.883,2.8863,2.8876,2.8902,2.8881,2.8909,2.8928,2.8917,2.8952,2.896,2.8977,2.9017,2.9035,2.9025,2.9097,2.9075,2.9078,2.908,2.9102,2.9109,2.9116,2.9031,2.903,2.903,0,0,2.8847,2.8861,2.8893,2.8906,2.8927,2.8932,2.8939,2.8958,2.8963,2.8998,2.899,2.9012,2.9051,2.9065,2.9076,2.9129,2.9121,2.9136,2.9163,2.9186,2.9192,2.9197,2.9216,2.9223,2.914,2.914,2.914,0,2.8868,2.8908,2.891,2.8939,2.8953,2.8945,2.8977,2.899,2.9015,2.9025,2.9014,2.9064,2.9075,2.9117,2.9131,2.914,2.9149,2.9134,2.9191,2.9197,2.9202,2.922,2.9227,2.9142,2.9142,2.9142,2.9142,0,2.8932,2.896,2.8983,2.901,2.9026,2.9057,2.9062,2.9079,2.9077,2.9083,2.9119,2.9132,2.9157,2.9167,2.9165,2.9209,2.9202,2.9191,2.917,2.9211,2.9227,2.9234,2.9145,2.9144,2.9143,2.9143,0,0,2.8992,2.902,2.9028,2.904,2.9062,2.9083,2.9113,2.9138,2.9152,2.917,2.9195,2.9229,2.9218,2.9232,2.9231,2.9251,2.9292,2.9237,2.9237,2.9247,2.9342,2.9351,2.9359,2.9287,2.9288,2.9289,2.934,0,2.9042,2.9095,2.9098,2.9146,2.9171,2.9164,2.919,2.9205,2.9212,2.9233,2.9239,2.9264,2.9248,2.9256,2.9276,2.9283,2.9311,2.9279,2.9309,2.931,2.9305,2.9367,2.9377,2.9424,2.9347,2.9348,2.9349,0,2.9107,2.9128,2.9179,2.9198,2.9209,2.9232,2.9255,2.9276,2.9293,2.9297,2.9312,2.9308,2.9338,2.9316,2.9356,2.9334,2.9347,2.9352,2.9354,2.9357,2.9332,2.9372,2.9439,2.9446,2.9359,2.9359,2.9358,0,2.9146,2.9187,2.9223,2.9234,2.9256,2.9273,2.9283,2.9299,2.9314,2.9334,2.9343,2.9366,2.9378,2.9395,2.9398,2.9381,2.9438,2.9416,2.9441,2.9441,2.9453,2.9453,2.9524,2.9461,2.9461,2.9461,2.9461,0,2.9201,2.9233,2.9241,2.9264,2.9299,2.9301,2.9335,2.9343,2.9358,2.9381,2.9375,2.9396,2.9398,2.942,2.9422,2.9455,2.946,2.9463,2.9464,2.9464,2.9464,2.9472,2.9469,2.9463,2.9462,2.9462,2.9462,0,2.9251,2.9258,2.9297,2.9315,2.932,2.9345,2.9361,2.9381,2.9387,2.9416,2.9423,2.9432,2.9457,2.9462,2.9491,2.9492,2.9532,2.9528,2.9527,2.9526,2.9551,2.9548,2.963,2.9641,2.9571,2.9571,2.9572,0,2.9286,2.931,2.9331,2.9347,2.9358,2.9383,2.9399,2.9401,2.9418,2.9439,2.9457,2.9483,2.9503,2.9544,2.9552,2.9574,2.9572,2.9599,2.9575,2.9575,2.9572,2.9571,2.9573,2.9603,2.9604,2.9605,2.9605,0,2.9347,2.935,2.9373,2.9398,2.9417,2.9436,2.9454,2.9466,2.9471,2.949,2.9516,2.9532,2.9563,2.9588,2.961,2.9619,2.9613,2.9612,2.9619,2.962,2.9618,2.962,2.9539,2.9611,2.961,2.961,2.9609,2.9609,2.9391,2.9412,2.9431,2.9457,2.9471,2.9488,2.9509,2.9517,2.954,2.9566,2.9566,2.9595,2.9611,2.9641,2.9651,2.9674,2.9665,2.9675,2.9677,2.968,2.9682,2.9615,2.9678,2.9677,2.9677,2.9677,2.9677,0,2.9452,2.9464,2.9488,2.9514,2.9534,2.9528,2.9547,2.9564,2.959,2.9607,2.9627,2.9658,2.9682,2.9692,2.9716,2.9731,2.9729,2.9737,2.9736,2.9738,2.9689,2.9681,2.9739,2.9739,2.9739,2.9739,2.9739,2.9739,2.9486,2.9522,2.9527,2.957,2.9581,2.961,2.9622,2.9637,2.9651,2.9685,2.9706,2.9713,2.9726,2.9751,2.9772,2.9775,2.9784,2.9793,2.9794,2.9748,2.9742,2.9736,2.9728,2.9795,2.9795,2.9842,2.9843,2.9843]}]]